[[{"header":{"parameterUnit":"m.s-1","parameterCategory":1,"la1":30.2992,"la2":30.254,"lo1":-89.0895,"lo2":-89.0443,"dy":0.0025,"dx":0.0025,"nx":19,"ny":19,"refTime":"2026-04-24T09:00:00:Z","depth":0,"parameterNumber":2,"parameterNumberName":"U-component_of_WINDS"},"data":[0,0,0,-2.3007,-2.3007,-2.3002,-2.3002,-2.2997,-2.2997,0,0,0,0,0,0,0,0,0,0,0,-2.301,-2.301,-2.3007,-2.3007,-2.3002,-2.3002,-2.2997,-2.2997,0,0,0,0,0,0,0,0,0,0,0,-2.301,-2.301,-2.301,-2.3007,-2.3002,-2.3002,-2.2997,-2.3,0,0,0,0,0,0,0,0,0,0,-2.3005,-2.3009,-2.301,-2.301,-2.3007,-2.3002,-2.3002,-2.3,-2.3,-2.3,0,-2.3001,0,-2.2999,-2.2997,-2.2997,0,0,0,-2.3006,-2.3009,-2.3007,-2.301,-2.3007,-2.3002,-2.3004,-2.3,-2.3,-2.3,-2.3001,-2.3,-2.2999,-2.2997,-2.2997,-2.3002,-2.3002,0,0,-2.3006,-2.3009,-2.3007,-2.3006,-2.3008,-2.3004,-2.3004,-2.3,-2.3001,-2.3001,-2.3,-2.2999,-2.2997,-2.2997,-2.3002,-2.3002,0,0,0,-2.3008,-2.301,-2.3007,-2.3007,-2.3006,-2.3004,-2.3004,-2.3001,-2.3,-2.3,-2.2999,-2.2997,-2.2997,-2.3002,-2.3002,-2.3008,0,0,0,-2.3008,-2.3011,-2.3008,-2.3009,-2.3006,-2.3003,-2.3005,-2.3,-2.3,-2.2999,-2.2997,-2.2997,-2.3002,-2.3002,-2.3008,-2.301,0,0,0,-2.301,-2.3011,-2.301,-2.301,-2.3007,-2.3003,-2.3002,-2.3,-2.2999,-2.2997,-2.2997,-2.3001,-2.3002,-2.3007,-2.301,-2.3012,0,0,0,-2.3012,-2.3016,-2.3011,-2.3014,-2.3008,-2.3008,-2.3002,-2.3002,-2.3001,-2.2997,-2.3002,-2.3002,-2.3007,-2.3009,-2.3012,-2.3015,-2.3016,0,0,-2.3018,-2.3016,-2.3018,-2.3013,-2.3015,-2.3008,-2.3011,-2.3007,-2.3004,-2.3003,-2.3003,-2.3008,-2.301,-2.3012,-2.3026,-2.3027,0,0,0,-2.3021,-2.3022,-2.3022,-2.3021,-2.3019,-2.3017,-2.3012,-2.3011,-2.301,-2.3004,-2.301,-2.3011,-2.3012,-2.3013,-2.3014,-2.3015,-2.3003,-2.3003,-2.3003,-2.3032,-2.3029,-2.3031,-2.3028,-2.3027,-2.3024,-2.3023,-2.3021,-2.3017,-2.3018,-2.3018,-2.3026,-2.3027,-2.3028,-2.3029,-2.3019,-2.3019,-2.302,-2.302,-2.3039,-2.304,-2.3036,-2.3037,-2.3034,-2.3035,-2.3032,-2.303,-2.303,-2.3026,-2.3027,-2.3022,-2.303,-2.3031,-2.302,-2.302,-2.302,-2.302,-2.302,-2.3045,-2.3045,-2.3044,-2.3044,-2.3044,-2.3041,-2.3042,-2.3039,-2.3036,-2.3038,-2.3037,-2.3037,-2.3036,-2.3038,-2.3038,-2.3038,-2.3038,-2.3038,-2.3038,-2.3051,-2.305,-2.3052,-2.3051,-2.3051,-2.305,-2.3048,-2.3047,-2.3046,-2.3044,-2.3044,-2.304,-2.3032,-2.3029,-2.3038,-2.3038,-2.3038,-2.3038,-2.3038,-2.3058,-2.3057,-2.3059,-2.3059,-2.3058,-2.3059,-2.3056,-2.3056,-2.3056,-2.3056,-2.3053,-2.3047,-2.3045,-2.3044,-2.3042,-2.3054,-2.3054,-2.3054,-2.3054,-2.3063,-2.3062,-2.3064,-2.3064,-2.3065,-2.3063,-2.3065,-2.3064,-2.3062,-2.3062,-2.306,-2.3057,-2.3057,-2.3055,-2.3054,-2.3051,-2.3066,-2.3066,-2.3066,-2.3067,-2.3067,-2.3069,-2.3068,-2.3067,-2.3067,-2.307,-2.307,-2.3068,-2.3066,-2.3062,-2.3061,-2.3057,-2.3055,-2.3052,-2.305,-2.3046,0,0]},{"header":{"parameterUnit":"m.s-1","parameterCategory":1,"la1":30.2992,"la2":30.254,"lo1":-89.0895,"lo2":-89.0443,"dy":0.0025,"dx":0.0025,"nx":19,"ny":19,"refTime":"2026-04-24T09:00:00:Z","depth":0,"parameterNumber":3,"parameterNumberName":"V-component_of_WINDS"},"data":[0,0,0,4.8686,4.8688,4.8831,4.8831,4.8997,4.8998,0,0,0,0,0,0,0,0,0,0,0,4.8636,4.8637,4.8685,4.8689,4.8831,4.8831,4.8997,4.8998,0,0,0,0,0,0,0,0,0,0,0,4.8636,4.8637,4.8638,4.8689,4.8831,4.8831,4.8996,4.8894,0,0,0,0,0,0,0,0,0,0,4.8759,4.8707,4.8637,4.8638,4.869,4.883,4.8832,4.889,4.8901,4.8926,0,4.8949,0,4.8976,4.9008,4.9009,0,0,0,4.8694,4.8698,4.8743,4.8638,4.8691,4.883,4.8768,4.8896,4.8908,4.8941,4.8952,4.8958,4.8979,4.9009,4.901,4.9147,4.9148,0,0,4.8686,4.8657,4.8734,4.875,4.873,4.8763,4.8772,4.8904,4.8913,4.8953,4.8963,4.8982,4.901,4.9012,4.9147,4.9147,0,0,0,4.866,4.8652,4.8694,4.8743,4.877,4.8767,4.8778,4.8907,4.8923,4.8964,4.8984,4.9011,4.9013,4.9147,4.9147,4.9142,0,0,0,4.8655,4.8637,4.869,4.8674,4.8767,4.8841,4.8778,4.8914,4.893,4.8983,4.9011,4.9015,4.9146,4.9147,4.9141,4.9144,0,0,0,4.8629,4.8634,4.8652,4.8672,4.8733,4.884,4.8864,4.8918,4.8942,4.9009,4.9015,4.9146,4.9147,4.914,4.9143,4.9172,0,0,0,4.8593,4.8644,4.8651,4.8716,4.8731,4.8835,4.8863,4.8941,4.8998,4.9012,4.9146,4.9147,4.914,4.9142,4.9171,4.9193,4.9199,0,0,4.8642,4.8649,4.8689,4.87,4.8796,4.8816,4.891,4.8988,4.9019,4.9102,4.9106,4.9141,4.9143,4.9172,4.9242,4.9246,0,0,0,4.8695,4.8724,4.8755,4.881,4.8871,4.8924,4.899,4.9019,4.9091,4.9057,4.916,4.9162,4.918,4.9192,4.9196,4.9213,4.9151,4.9151,4.9151,4.8725,4.8763,4.8832,4.8886,4.8937,4.9005,4.905,4.91,4.9122,4.9145,4.9171,4.9208,4.9221,4.9224,4.9242,4.9184,4.9184,4.9184,4.9184,4.8801,4.8848,4.8876,4.8953,4.8991,4.9055,4.9121,4.9134,4.9198,4.9192,4.921,4.9202,4.9228,4.9246,4.9184,4.9184,4.9184,4.9184,4.9184,4.8827,4.8856,4.889,4.8971,4.9029,4.908,4.9141,4.9173,4.9203,4.922,4.9251,4.9251,4.9256,4.9232,4.9232,4.9233,4.9233,4.9233,4.9233,4.884,4.8879,4.8927,4.8996,4.9034,4.9088,4.9154,4.9192,4.9242,4.926,4.926,4.928,4.9224,4.921,4.9235,4.9235,4.9235,4.9234,4.9234,4.8906,4.8896,4.8971,4.9009,4.9091,4.9145,4.9185,4.9258,4.9293,4.9321,4.9336,4.929,4.9299,4.9296,4.9285,4.9328,4.9328,4.9328,4.9328,4.8928,4.8936,4.9019,4.9078,4.9139,4.9182,4.9262,4.9313,4.9363,4.9387,4.9384,4.9371,4.9367,4.9379,4.9374,4.9364,4.9427,4.9427,4.9427,4.8971,4.8986,4.9051,4.9102,4.9167,4.9222,4.9299,4.9363,4.9418,4.9432,4.9406,4.9402,4.9381,4.9373,4.9389,4.938,4.9363,0,0]}]]